Tracking 23762 objects as of 20-Oct-2021
HD Live streaming from Space Station
objects crossing your sky now

SL-23 R/B

Track SL-23 R/B now!


NORAD ID: 34112
Int'l Code: 2009-009B
Perigee: 1,357.6 km
Apogee: 35,776.5 km
Inclination: 35.2 °
Period: 653.2 minutes
Semi major axis: 24938 km
RCS: 13.401 m2 (large)
Launch date: February 26, 2009
Source: Commonwealth of Independent States (former USSR) (CIS)
Launch site: TYURATAM MISSILE AND SPACE COMPLEX (TTMTR)

Note: This is a ROCKET BODY
aabbcc
Your satellite tracking list
Your tracking list is empty




NASA's NSSDC Master Catalog

Two Line Element Set (TLE):
1 34112U 09009B   21292.23211403 -.00000242  00000-0  00000+0 0  9999
2 34112  35.1620 343.5084 6900869 263.5861 353.2012  2.20449345101827
Source of the keplerian elements: AFSPC